Temp
24 24 24 24 24 24 25 25 25 25 25 25 27 25 25 25 26 26 25 25 25 25 25 25 25 25 25 26 26 26 26 25 23 25 25 25 24 24 23 23 21 21 21
22 21 24 24 24 24 24 25 25 25 25 25 26 26 25 25 26 25 25 25 25 25 25 25 25 25 25 25 25 25 25 25 24 23 25 24 24 24 24 22 20 19 20
23 22 21 25 25 25 25 25 25 25 25 25 24 25 25 25 25 25 25 25 25 25 25 25 25 25 25 25 25 25 25 24 24 24 23 24 24 23 23 21 20 19 19
20 22 20 21 25 25 25 25 25 25 25 25 25 25 25 25 25 25 25 25 25 25 25 25 25 25 25 25 25 24 24 24 23 23 23 23 23 22 22 21 18 18 17
21 19 21 23 22 24 26 26 26 26 25 25 25 25 25 25 25 25 25 25 25 25 25 25 25 25 24 24 24 24 24 23 23 22 22 21 21 21 21 20 19 17 15
19 20 22 20 22 25 25 24 26 26 26 26 25 25 25 25 25 25 25 25 25 25 25 25 24 24 24 24 24 23 23 23 22 21 21 20 20 20 20 19 18 16 16
21 18 20 20 23 25 25 27 24 25 26 25 25 25 25 25 25 25 25 25 25 25 25 24 24 23 23 22 23 23 22 22 21 21 20 19 19 19 19 19 19 17 16
22 22 22 21 23 23 25 23 25 26 26 26 25 25 25 25 25 25 25 25 25 25 25 24 24 23 23 22 22 21 21 20 20 20 20 19 19 19 18 18 18 17 15
22 22 22 22 22 22 22 24 24 25 25 25 25 25 25 25 25 25 25 25 25 25 25 24 24 23 23 22 21 20 20 19 19 19 19 19 18 18 18 18 17 17 15
23 22 21 20 21 21 21 22 22 23 24 24 24 25 25 25 25 25 25 25 24 24 24 23 23 22 21 20 20 20 19 19 18 18 18 18 18 18 18 18 18 18 16
22 21 21 20 19 19 20 20 21 21 21 22 22 22 21 22 23 23 24 23 23 23 22 21 21 20 20 20 19 19 20 19 18 18 18 18 17 18 18 18 18 19 18
21 20 19 18 18 18 18 19 20 20 20 20 20 19 19 19 19 19 20 20 20 21 21 21 21 19 19 19 19 18 18 18 18 18 18 18 18 18 18 18 18 18 18
20 19 19 18 17 17 17 17 17 17 18 19 19 18 18 18 18 18 18 19 19 19 21 20 20 18 18 18 18 18 18 18 18 18 18 18 18 18 18 17 17 17 17
19 18 18 18 16 15 15 15 15 15 15 16 16 16 16 16 16 17 17 18 18 19 18 17 17 17 17 17 16 17 17 18 18 18 18 18 18 18 17 17 17 16 17
18 18 18 17 16 14 14 14 14 14 14 14 14 14 14 14 14 15 15 15 16 16 15 15 15 14 14 15 15 16 16 17 17 17 17 18 18 18 18 18 17 16 16
17 16 17 17 16 14 14 13 14 14 15 15 15 15 14 14 14 14 15 15 14 14 14 14 14 14 15 15 15 15 15 15 16 17 18 18 18 18 18 17 17 17 16
17 15 16 16 16 15 14 14 13 14 14 14 15 15 16 15 15 15 15 15 15 15 15 14 14 14 14 15 15 15 16 17 17 18 18 18 18 17 17 17 17 17 17
17 16 15 15 15 15 14 14 14 13 13 13 14 14 15 15 15 15 15 15 14 14 14 14 14 15 15 16 16 17 17 17 17 17 17 17 17 17 17 17 17 16 16
17 16 15 15 15 15 15 14 14 14 13 12 12 13 13 14 14 14 14 14 14 14 14 14 15 16 16 16 16 17 17 17 17 17 17 17 17 17 17 17 16 16 16
17 16 15 15 15 15 14 14 14 13 13 12 12 12 12 13 13 13 13 14 14 15 16 16 16 17 17 17 17 17 17 16 17 17 17 17 16 17 17 17 16 16 16
17 16 16 15 14 14 14 14 14 13 13 12 12 12 13 13 14 14 14 15 16 17 17 17 18 18 18 17 17 17 16 16 16 16 16 16 16 16 17 17 17 16 16
18 17 16 15 14 14 14 14 14 14 13 13 12 13 13 13 13 14 15 16 17 18 18 18 18 18 17 17 17 17 16 16 16 16 16 17 17 17 17 17 17 17 17
19 18 16 16 16 15 15 15 14 14 14 14 14 14 13 14 15 15 16 17 17 18 18 18 18 17 17 17 16 17 16 17 17 17 17 17 17 17 17 17 17 17 17
20 19 18 18 17 17 16 16 16 15 15 15 15 16 16 16 16 17 17 18 18 19 18 18 18 18 17 17 17 17 17 17 17 17 17 17 17 16 16 17 17 17 17
20 20 21 19 19 19 19 18 18 17 17 17 17 17 18 18 18 18 18 19 19 19 19 18 18 18 18 18 17 17 17 17 18 17 17 17 17 17 17 17 17 17 17
21 21 22 22 22 22 22 22 21 20 21 18 19 19 20 20 20 19 19 20 19 19 19 19 19 19 18 18 18 18 18 18 17 17 17 16 16 16 16 16 16 17 17
Height
794 798 804 808 809 811 812 813 813 812 814 817 817 820 823 825 826 827 830 831 832 833 835 836 835 834 834 835 835 835 834 835 835 836 836 836 835 835 837 836 839 839 839
797 802 801 803 806 810 810 811 812 810 811 812 814 816 820 823 824 825 826 827 828 829 831 833 833 832 831 833 832 833 832 832 832 833 833 834 835 835 835 835 837 837 838
791 797 799 800 802 805 806 807 809 809 809 810 812 813 815 817 820 822 823 825 824 826 828 829 830 829 828 830 831 831 830 831 831 832 833 834 834 834 835 835 835 836 837
783 789 796 799 795 795 799 802 803 804 807 808 809 809 811 814 817 819 820 822 821 822 824 826 827 826 825 827 829 830 830 830 830 830 831 832 832 832 832 831 834 835 835
775 783 798 792 796 794 794 794 797 798 799 803 806 807 808 810 813 815 817 818 817 819 820 822 823 824 824 824 826 827 827 828 829 829 829 830 830 831 831 831 832 833 836
778 781 787 788 786 786 790 791 792 791 793 796 800 803 805 806 808 810 813 813 814 816 817 818 819 819 819 821 823 823 824 825 826 827 829 830 830 830 830 830 830 832 835
779 782 782 781 781 774 780 781 787 786 790 792 794 798 799 800 802 805 807 808 810 812 813 814 815 815 816 817 818 820 821 822 823 823 825 827 827 827 828 829 829 828 829
777 776 777 777 775 775 775 781 781 783 783 787 791 793 795 796 797 799 801 803 805 807 808 809 810 812 813 814 816 818 819 820 821 821 821 823 824 824 825 826 827 828 830
774 772 773 773 774 774 775 775 777 778 781 783 784 785 788 788 789 792 795 798 799 801 803 803 805 807 810 812 813 815 818 820 821 820 821 821 821 823 825 825 827 828 832
773 771 770 770 769 769 771 772 772 773 775 777 778 780 781 783 785 787 789 790 793 795 797 797 800 803 807 809 811 814 817 820 821 824 824 822 822 823 826 825 824 827 831
770 771 771 770 769 770 771 771 770 770 771 772 770 772 774 774 776 779 781 783 785 787 789 791 795 799 803 806 808 812 815 818 821 825 827 826 826 826 827 827 826 826 826
767 767 767 768 769 769 769 767 767 769 768 768 770 770 769 772 773 773 773 775 779 780 781 786 789 795 799 802 805 809 812 816 820 824 826 827 826 827 828 828 830 830 828
770 768 768 770 769 769 769 769 768 768 767 767 768 768 770 771 773 774 773 773 774 776 776 780 784 791 795 798 802 805 809 813 817 822 823 826 827 830 830 831 833 833 832
769 770 771 772 772 771 770 769 769 768 768 769 768 770 771 772 773 772 771 771 771 773 777 780 782 786 792 796 800 804 809 811 815 818 822 825 826 828 830 831 834 834 834
768 768 769 769 771 772 771 771 770 769 769 769 771 772 772 771 770 769 769 770 770 772 778 778 778 784 782 793 801 804 808 812 816 818 821 824 826 828 831 831 830 833 834
767 768 769 769 770 772 774 773 773 772 772 772 772 773 773 772 772 771 769 773 776 777 781 781 781 787 794 798 800 806 810 814 816 819 822 823 826 827 831 833 833 833 835
765 767 768 769 769 771 775 776 776 776 776 775 775 776 776 774 776 777 779 780 782 783 787 789 791 794 802 798 802 807 810 816 819 822 824 824 825 827 830 832 833 834 835
764 766 767 768 769 770 773 775 776 777 777 777 777 778 776 777 778 780 783 785 785 788 791 794 793 795 800 803 806 806 809 813 816 820 822 825 828 829 831 831 832 834 836
763 765 766 768 769 770 771 774 776 777 778 777 778 779 780 778 781 783 785 786 786 790 794 795 797 798 801 803 808 809 811 813 814 817 821 825 827 829 831 832 834 833 835
762 764 765 767 768 769 771 772 774 775 777 778 778 779 778 780 780 783 785 786 788 791 793 794 796 798 800 801 807 810 810 814 816 818 822 824 827 829 831 833 833 833 835
761 763 764 766 767 769 771 772 773 774 775 777 778 779 779 780 778 781 783 785 787 789 791 793 796 799 801 804 807 810 812 814 817 818 821 823 826 828 830 831 833 833 833
760 760 762 764 765 766 767 769 771 771 773 774 776 777 779 779 780 782 782 785 787 788 790 793 795 799 801 803 806 808 811 814 815 818 820 821 825 827 827 830 832 831 829
758 759 761 762 763 765 766 767 768 770 770 771 773 774 775 776 779 781 782 782 786 786 789 793 795 798 800 801 804 807 808 811 813 815 818 820 822 824 825 827 828 826 826
755 756 758 759 761 761 761 762 764 767 769 770 771 771 773 775 777 779 781 782 785 787 789 791 794 796 798 800 803 805 807 809 811 813 816 818 819 821 822 825 823 822 822
751 751 751 754 755 757 758 759 760 762 765 768 770 769 771 773 776 777 779 781 783 786 788 790 792 793 796 798 801 803 805 805 807 810 812 814 815 816 817 819 819 818 819
747 747 747 748 751 753 754 755 756 757 759 761 765 766 767 770 772 773 776 778 781 784 786 787 789 790 792 795 798 800 802 804 806 807 809 810 811 811 812 812 813 813 812
Wind_Speed
33 31 27 26 27 27 22 21 17 16 14 16 16 18 16 14 14 13 13 11 7 8 7 9 8 7 6 4 4 3 3 3 3 3 7 4 2 5 9 9 9 9 7
5 7 29 28 27 26 27 20 18 20 18 16 19 20 15 16 14 14 15 12 9 15 12 11 10 4 4 2 2 3 8 5 1 5 5 7 4 4 6 9 13 9 8
16 15 19 27 26 26 26 25 22 21 22 19 20 22 21 19 19 16 15 16 13 11 11 15 11 9 9 6 4 5 2 1 3 5 5 5 6 5 5 11 12 10 8
11 15 24 18 32 32 29 28 29 27 25 22 21 20 20 21 21 20 18 17 15 13 13 11 12 10 10 9 7 4 2 2 3 4 3 3 4 4 8 16 15 11 12
5 14 23 13 15 22 30 32 33 30 30 27 25 24 25 24 24 23 20 20 16 14 15 11 11 12 10 7 8 7 5 3 1 1 2 2 4 5 5 4 14 15 14
14 19 29 24 24 14 23 19 35 37 33 30 30 29 27 26 27 24 23 22 20 18 16 14 13 12 9 9 9 9 8 6 4 3 1 2 3 4 3 6 17 15 5
17 37 39 29 30 28 29 26 26 34 32 28 31 31 30 28 26 24 26 27 26 23 18 15 13 12 10 10 9 8 5 3 4 5 7 5 4 2 5 5 7 8 6
1 4 7 20 24 27 30 26 24 29 27 28 29 28 30 30 28 29 29 19 27 24 22 17 15 14 14 13 12 10 7 6 5 5 4 4 3 4 6 5 9 15 13
2 3 2 3 1 16 23 23 25 22 23 25 27 30 30 31 31 31 29 29 25 27 23 19 18 17 19 17 17 13 10 6 6 5 7 9 11 10 8 10 11 11 4
1 3 4 4 5 4 3 5 6 12 16 19 22 27 29 31 32 31 31 29 26 25 21 20 18 18 18 17 16 16 13 9 8 11 14 16 16 12 9 10 10 8 8
4 3 2 5 4 4 5 5 5 5 6 10 12 17 21 20 25 29 31 29 29 27 24 20 18 17 16 16 15 17 15 11 12 11 11 10 11 8 5 5 6 10 13
3 1 5 8 7 5 4 5 5 6 7 4 2 2 1 3 3 10 17 23 25 23 28 25 21 17 16 16 16 16 12 15 16 11 7 12 13 8 11 11 12 12 12
4 5 5 6 7 6 5 6 6 5 5 2 3 2 3 3 3 7 10 11 16 21 29 28 22 20 20 21 20 18 20 17 10 7 13 15 12 9 9 10 12 13 17
4 7 9 5 4 4 4 6 5 6 6 4 4 3 3 4 6 6 7 12 16 23 25 26 27 26 23 22 24 23 14 13 14 14 13 10 10 6 6 5 8 11 14
3 4 6 9 6 10 11 10 10 10 8 6 5 3 2 2 2 4 10 16 21 25 27 28 28 26 26 22 17 16 15 14 13 11 10 10 10 10 9 8 9 14 8
2 1 4 10 10 9 9 12 11 11 12 14 13 13 14 12 10 11 13 13 20 19 21 19 23 25 22 21 17 13 13 12 12 12 12 12 10 8 6 9 17 20 18
3 1 4 10 10 10 7 7 10 11 11 12 13 13 16 19 18 19 19 20 18 17 18 15 18 17 13 16 16 13 14 13 11 10 9 11 12 10 12 11 12 13 11
3 4 5 6 9 11 10 7 7 7 8 7 8 10 12 14 15 14 14 14 15 13 14 13 16 15 13 13 15 16 15 13 13 11 10 9 9 14 14 13 11 9 5
2 3 5 6 7 9 10 9 8 6 4 6 9 10 10 12 12 14 14 14 16 12 11 12 13 13 14 13 12 15 15 13 13 14 14 13 15 14 10 6 7 8 5
5 5 6 7 7 8 8 9 10 8 6 8 9 11 14 15 15 15 14 12 12 11 7 13 14 14 13 12 19 14 17 15 15 13 12 10 10 10 9 10 8 9 8
9 7 7 9 10 10 10 10 10 8 8 11 12 15 16 16 16 15 15 17 13 8 5 16 13 14 14 17 16 16 16 18 15 11 12 12 8 7 11 13 14 12 12
14 12 14 13 10 12 14 13 13 11 11 13 14 15 15 14 14 15 17 16 13 13 11 17 20 18 17 18 17 15 14 14 15 16 13 12 12 10 9 11 14 15 13
17 15 14 13 12 12 13 14 15 15 15 15 14 15 18 19 17 16 15 13 10 17 22 20 16 15 12 13 15 18 16 18 16 15 18 19 19 17 17 20 20 19 12
10 19 20 19 18 20 19 18 18 19 17 17 17 18 19 21 20 18 16 14 18 15 16 14 13 15 17 17 14 15 17 18 22 20 18 17 12 10 14 5 9 15 14
18 21 22 27 26 26 20 23 25 24 25 22 22 21 22 20 20 19 13 22 17 17 14 15 18 20 21 18 17 16 13 12 18 21 18 14 12 10 11 12 11 6 10
16 16 20 22 19 13 12 10 14 19 16 30 30 25 18 18 17 20 22 23 21 21 17 17 15 11 23 24 19 19 13 11 11 13 14 13 14 17 18 18 16 14 14
Wind_Direction
198 203 210 222 223 217 213 208 198 178 184 201 211 193 215 231 210 216 229 244 247 239 257 267 272 288 294 301 353 355 319 244 194 313 40 27 319 198 215 221 212 195 168
238 324 213 216 221 223 224 218 208 194 194 214 212 207 213 215 214 212 232 237 235 239 247 252 252 259 314 279 17 37 54 23 328 291 26 30 80 216 216 192 185 182 178
271 281 303 222 218 219 224 221 218 209 211 207 206 205 212 214 224 231 240 232 224 233 241 249 245 245 242 252 285 303 325 14 25 20 7 15 78 73 147 151 184 161 152
253 255 290 270 216 211 218 220 217 216 217 219 220 222 220 223 227 230 232 232 231 237 237 261 231 256 245 240 249 263 259 318 347 358 26 54 55 72 122 154 150 152 139
171 242 242 253 264 224 215 221 219 217 218 220 222 223 226 226 229 231 229 234 235 234 234 244 246 244 239 226 225 226 240 244 216 18 73 72 69 84 93 111 161 150 155
175 216 225 254 241 233 234 228 231 215 217 220 223 224 226 228 232 237 232 234 234 233 241 240 245 247 239 226 231 230 241 226 194 169 151 141 128 131 85 112 151 139 144
198 212 219 227 221 235 238 227 238 223 219 220 222 226 230 232 232 229 236 237 234 232 238 237 239 242 231 211 196 197 194 193 198 179 161 155 180 170 130 119 132 146 139
267 248 176 204 222 229 217 242 237 222 213 221 229 232 234 236 237 234 236 242 234 233 224 226 226 228 223 215 196 189 168 160 173 175 175 167 178 173 144 132 130 117 114
335 344 303 288 204 216 233 243 235 235 237 235 237 239 237 242 239 239 236 236 236 225 226 226 224 220 221 209 196 195 181 166 172 166 142 126 119 115 144 147 144 137 120
43 69 66 33 354 325 305 290 265 253 246 244 251 255 250 247 249 245 242 235 225 220 223 226 220 223 205 184 206 196 175 179 165 152 138 118 111 111 119 148 168 160 129
27 96 359 359 340 304 302 317 289 283 281 271 265 261 254 248 248 246 244 234 220 222 216 202 206 203 193 194 200 203 201 183 162 161 148 134 121 93 104 98 105 164 151
5 83 28 22 26 24 349 334 325 317 299 295 239 193 318 315 324 243 226 225 217 212 206 202 200 200 195 191 182 187 178 160 155 161 185 155 136 101 99 101 105 110 96
34 121 58 28 26 19 13 3 354 6 3 14 204 261 303 316 282 245 233 226 216 213 209 204 194 178 169 163 168 161 151 150 165 169 139 138 144 131 118 111 114 101 93
5 153 130 107 61 50 59 58 58 65 58 41 12 348 315 285 260 240 227 229 211 199 188 172 164 162 161 154 148 145 141 141 146 139 138 130 128 142 178 193 160 140 112
17 65 142 124 92 86 81 80 74 71 73 79 74 65 33 2 323 243 181 159 173 166 145 136 131 133 131 134 137 136 136 144 148 141 150 161 140 132 104 96 175 178 139
30 298 131 142 130 107 100 89 83 87 93 89 86 84 86 86 94 100 110 123 124 121 124 119 123 132 139 143 134 136 140 142 156 167 154 148 156 145 136 111 119 123 124
122 229 161 164 155 144 143 125 110 105 109 106 104 104 105 104 105 108 109 117 120 122 122 122 132 135 150 135 139 144 151 161 152 150 142 141 138 149 148 120 123 122 113
155 218 200 194 182 166 167 175 167 157 142 112 121 128 123 120 128 136 137 137 128 135 144 153 151 148 160 165 166 157 155 156 151 151 150 159 152 142 129 122 129 128 135
166 194 192 188 188 183 186 191 190 194 174 140 137 142 145 146 152 160 163 158 144 159 170 181 178 175 177 173 167 162 165 153 156 148 141 137 146 144 145 141 160 155 165
162 195 189 192 182 185 179 177 173 173 176 183 176 176 162 159 161 177 182 185 187 188 201 205 195 178 177 178 179 171 165 165 156 153 154 164 170 175 174 182 175 179 205
177 195 209 198 200 188 186 188 193 191 193 197 204 197 183 183 179 187 189 184 200 223 222 187 176 167 177 178 171 163 163 165 168 172 173 178 199 200 211 213 216 225 230
196 195 195 202 196 194 202 208 213 212 205 195 200 199 194 193 191 195 192 209 234 238 249 186 173 178 175 172 172 173 183 192 186 189 200 190 204 211 213 221 226 236 239
204 201 197 195 196 199 200 211 221 216 208 194 190 185 191 197 202 208 224 235 273 164 168 168 168 172 195 195 192 191 196 197 193 200 207 210 219 224 223 234 241 244 254
235 214 204 207 205 207 204 205 208 214 205 199 194 188 198 207 210 215 226 265 180 175 177 181 186 188 198 199 192 207 227 237 220 209 216 226 207 207 222 230 254 265 207
244 255 232 216 207 208 209 213 210 213 202 201 202 200 203 215 229 239 261 181 179 184 195 204 206 204 204 206 206 215 204 184 188 191 197 203 216 235 258 274 280 288 261
246 268 180 177 190 211 210 232 199 201 200 184 198 200 193 211 232 254 200 182 188 193 197 207 213 187 200 206 199 197 205 213 217 222 233 248 259 262 262 264 264 256 269